New Bullards Bar Reservoir Weather Center

Moon Phase Calendar



New Bullards Bar Reservoir Water Level
Online Cameras

 


      

Current Conditions in Challenge-Brownsville
6/21/2021 5:35:38 PM

89°F
Feels Like 85
Clouds
Humidity
22%
Pressure
29.83"
Wind
8.6 mph (SW)
Dew Point
45°F
UV Index
2/10 (Low)
Visibility
6 mi

Hourly Forecast

Date & Time Mon, Jun 21
5:00 PM
Mon, Jun 21
6:00 PM
Mon, Jun 21
7:00 PM
Mon, Jun 21
8:00 PM
Mon, Jun 21
9:00 PM
Mon, Jun 21
10:00 PM
Mon, Jun 21
11:00 PM
Tue, Jun 22
12:00 AM
Tue, Jun 22
1:00 AM
Tue, Jun 22
2:00 AM
Tue, Jun 22
3:00 AM
Tue, Jun 22
4:00 AM
Tue, Jun 22
5:00 AM
Tue, Jun 22
6:00 AM
Tue, Jun 22
7:00 AM
Tue, Jun 22
8:00 AM
Tue, Jun 22
9:00 AM
Tue, Jun 22
10:00 AM
Tue, Jun 22
11:00 AM
Tue, Jun 22
12:00 PM
Tue, Jun 22
1:00 PM
Tue, Jun 22
2:00 PM
Tue, Jun 22
3:00 PM
Tue, Jun 22
4:00 PM
Tue, Jun 22
5:00 PM
Tue, Jun 22
6:00 PM
Tue, Jun 22
7:00 PM
Tue, Jun 22
8:00 PM
Tue, Jun 22
9:00 PM
Tue, Jun 22
10:00 PM
Tue, Jun 22
11:00 PM
Wed, Jun 23
12:00 AM
Wed, Jun 23
1:00 AM
Wed, Jun 23
2:00 AM
Wed, Jun 23
3:00 AM
Wed, Jun 23
4:00 AM
Wed, Jun 23
5:00 AM
Wed, Jun 23
6:00 AM
Wed, Jun 23
7:00 AM
Wed, Jun 23
8:00 AM
Wed, Jun 23
9:00 AM
Wed, Jun 23
10:00 AM
Wed, Jun 23
11:00 AM
Wed, Jun 23
12:00 PM
Wed, Jun 23
1:00 PM
Wed, Jun 23
2:00 PM
Wed, Jun 23
3:00 PM
Wed, Jun 23
4:00 PM
Condition
Clouds

Clouds

Clouds

Clouds

Clouds

Clouds

Clouds

Clouds

Clouds

Clouds

Clouds

Clear

Clear

Clear

Clear

Clear

Clear

Clear

Clear

Clear

Clear

Clear

Clear

Clear

Clear

Clear

Clear

Clear

Clear

Clear

Clear

Clear

Clear

Clear

Clear

Clear

Clear

Clear

Clear

Clear

Clear

Clear

Clear

Clear

Clear

Clear

Clear

Clear
Temperature 89°F89°F88°F84°F79°F74°F69°F67°F66°F65°F64°F63°F62°F62°F67°F74°F78°F81°F83°F85°F87°F88°F89°F89°F87°F85°F82°F74°F68°F66°F65°F63°F63°F62°F62°F61°F60°F60°F66°F72°F76°F79°F82°F84°F86°F87°F88°F87°F
Feels Like 86°F85°F85°F82°F79°F73°F67°F65°F65°F63°F62°F61°F60°F60°F66°F72°F77°F79°F81°F82°F84°F85°F85°F85°F84°F82°F80°F73°F67°F65°F63°F62°F61°F61°F60°F59°F59°F58°F65°F71°F75°F79°F80°F82°F83°F84°F84°F84°F
Cloudiness 34%41%45%53%62%67%66%18%17%14%11%8%7%0%0%0%0%0%0%0%0%0%0%0%0%0%0%0%0%0%0%0%0%0%0%0%0%0%0%0%0%0%0%0%0%0%0%0%
Visibility 6 mi6 mi6 mi6 mi6 mi6 mi6 mi6 mi6 mi6 mi6 mi6 mi6 mi6 mi6 mi6 mi6 mi6 mi6 mi6 mi6 mi6 mi6 mi6 mi6 mi6 mi6 mi6 mi6 mi6 mi6 mi6 mi6 mi6 mi6 mi6 mi6 mi6 mi6 mi6 mi6 mi6 mi6 mi6 mi6 mi6 mi6 mi6 mi
Precipitation 0%0%0%0%0%0%0%0%0%0%0%0%0%0%0%0%0%0%0%0%0%0%0%0%0%0%0%0%0%0%0%0%0%0%0%0%0%0%0%0%0%0%0%0%0%0%0%0%
Humidity 20%22%21%26%30%34%39%40%41%42%43%42%43%43%40%33%30%26%23%20%19%18%18%18%21%25%29%43%49%52%54%55%56%55%55%55%55%55%48%39%34%31%28%25%23%21%20%20%
Dew Point 43°F45°F43°F46°F45°F44°F41°F41°F40°F39°F38°F38°F37°F37°F40°F41°F42°F41°F40°F39°F39°F38°F38°F39°F41°F43°F45°F48°F47°F46°F46°F46°F45°F44°F43°F43°F42°F42°F44°F44°F44°F44°F44°F43°F42°F41°F41°F40°F
Pressure 29.83"29.83"29.83"29.83"29.85"29.88"29.88"29.88"29.85"29.85"29.88"29.88"29.88"29.88"29.88"29.88"29.88"29.85"29.85"29.85"29.85"29.83"29.8"29.8"29.77"29.77"29.77"29.8"29.83"29.85"29.85"29.85"29.85"29.85"29.85"29.85"29.85"29.88"29.88"29.88"29.85"29.85"29.85"29.85"29.85"29.83"29.83"29.83"
Wind Speed 9.1 mph8.6 mph6.3 mph3 mph2.4 mph4.4 mph5.4 mph5 mph4.6 mph3.8 mph3.3 mph4 mph4.3 mph4.2 mph1.8 mph3.3 mph5.2 mph6.8 mph8 mph8.4 mph8.8 mph9.3 mph9.8 mph10 mph10.2 mph9.6 mph8.1 mph2.9 mph4.4 mph5.5 mph4.7 mph4.7 mph4.8 mph5 mph4.6 mph4.2 mph4.1 mph4.2 mph1.8 mph2.7 mph4.5 mph6.1 mph7.1 mph7.8 mph9 mph9.4 mph9.4 mph9.2 mph
Wind
Direction
217°
SW
214°
SW
208°
SSW
191°
S
114°
ESE
70°
ENE
65°
ENE
62°
ENE
61°
ENE
60°
ENE
52°
NE
83°
E
63°
ENE
58°
ENE
90°
E
195°
SSW
204°
SSW
210°
SSW
213°
SSW
211°
SSW
213°
SSW
214°
SW
214°
SW
211°
SSW
214°
SW
216°
SW
223°
SW
252°
WSW
39°
NE
58°
ENE
69°
ENE
71°
ENE
63°
ENE
58°
ENE
62°
ENE
65°
ENE
68°
ENE
61°
ENE
72°
ENE
227°
SW
235°
SW
231°
SW
228°
SW
226°
SW
222°
SW
221°
SW
222°
SW
220°
SW

Daily Forecast

Date High Low Precip. Humidity
Today
Jun 21

Clear
93 °F
69 °F
0%
15%
Tuesday
Jun 22

Clear
89 °F
62 °F
0%
19%
Wednesday
Jun 23

Clear
87 °F
60 °F
0%
21%
Thursday
Jun 24

Rain
88 °F
64 °F
39%
24%
Friday
Jun 25

Clouds
95 °F
63 °F
0%
23%
Saturday
Jun 26

Clouds
104 °F
70 °F
0%
14%
Sunday
Jun 27

Clear
105 °F
74 °F
0%
12%
Monday
Jun 28

Clouds
100 °F
75 °F
34%
15%
Tuesday
Jun 29

Clear
106 °F
74 °F
0%
12%
Wednesday
Jun 30

Clear
112 °F
78 °F
0%
9%
Thursday
Jul 1

Clear
112 °F
80 °F
0%
7%
Friday
Jul 2

Clear
103 °F
78 °F
0%
12%
Saturday
Jul 3

Clear
100 °F
73 °F
0%
16%
Sunday
Jul 4

Clouds
99 °F
75 °F
2%
18%
Monday
Jul 5

Clear
100 °F
72 °F
0%
18%
Tuesday
Jul 6

Clear
97 °F
72 °F
0%
16%

Temperature 8-14 Day Outlook



Precipitation 8-14 Day Outlook




Quick Links
New Bullards Bar Reservoir News
New Bullards Bar Reservoir Photos
New Bullards Bar Reservoir Videos




About Us
Contact Us
Site Map
Search Site
Advertise With Us
   
NewBullardsBar.LakesOnline.com
THE NEW BULLARDS BAR RESERVOIR WEBSITE

Copyright 2021, Lakes Online
Privacy    |    Legal